User: anonymous   Login
Location: Delmar
(42.6220°N, 73.8326°W)
Time: 14:34:38
(UTC+00:00)
Language:

CZ-2D R/B - Orbit

View from above orbital plane
View from above orbital plane
View from above satellite
View from above satellite

Ground track
Ground track

The orbit data is extracted from the following two-line orbital elements,

1 28738U 05024B   21020.03508990  .00000266  00000-0  18973-4 0  9994
2 28738  97.3696  41.2670 0012635 148.7827 211.4157 15.12242029854156
Epoch (UTC): 20 January 2021 00:50:31
Eccentricity: 0.0012635
inclination: 97.3696°
perigee height: 520 km
apogee height: 538 km
right ascension of ascending node: 41.2670°
argument of perigee: 148.7827°
revolutions per day: 15.12242029
mean anomaly at epoch: 211.4157°
orbit number at epoch: 85415

The dashed part of the orbit path shows where the satellite is in the earth's shadow,  

DLR